Theta_e
318 316 315 314 314 313 312 311 310 310 309 311 317 320 320 319 319 320 319 319 319 319 319 319 319 319 320 320 320 322 322 322 321 321 321 319 318 319 319 318 317 316 316 315 316 316 314 314 314 313 312 311 311 311 311 310 310 310 310 309 309 309 308 308 307 307 307 307 307 307 306 306 306 305 305 305 305 304 304 304 304 303 304 304 304
320 318 317 316 315 313 312 312 311 310 309 309 313 318 319 318 319 319 319 319 319 320 320 320 320 320 319 320 320 320 321 322 322 321 320 319 318 319 319 318 317 316 315 315 316 315 314 314 314 313 312 312 311 311 311 310 310 309 309 309 309 308 308 307 307 307 306 306 306 306 306 305 305 305 305 304 304 304 303 303 303 303 303 303 304
322 321 319 317 316 315 314 313 312 311 310 309 311 316 318 318 318 319 319 319 319 320 320 320 320 320 320 320 320 320 321 322 321 321 320 319 319 319 319 318 317 316 315 315 316 316 315 314 313 312 312 312 311 311 310 310 310 309 309 309 308 308 307 307 306 306 306 306 306 305 305 305 304 304 304 304 303 303 303 303 303 303 303 303 303
325 323 321 320 318 316 315 315 313 312 311 310 310 313 317 317 317 318 319 319 319 319 319 319 319 320 320 320 320 320 321 321 321 320 320 319 319 319 318 318 317 316 315 315 316 316 315 315 313 312 312 311 311 310 310 310 309 309 309 308 308 307 307 307 306 306 306 305 305 305 304 304 304 304 303 303 303 303 302 302 302 302 303 302 302
327 326 324 322 320 319 317 316 315 313 311 310 309 311 314 316 317 317 318 318 319 319 319 318 318 319 319 320 321 321 321 321 320 319 320 319 318 318 318 318 317 316 315 315 316 315 315 315 313 313 312 311 311 310 310 310 309 309 309 308 308 307 307 306 306 305 305 305 305 304 304 304 303 303 303 303 302 302 302 302 302 302 302 302 302
329 329 327 325 323 321 320 318 317 315 313 311 310 310 311 314 316 316 317 317 318 318 318 318 318 318 319 320 320 321 321 321 320 318 320 319 318 318 317 317 317 317 316 315 316 315 314 314 313 313 312 312 312 311 310 309 309 309 309 308 308 307 307 306 306 305 305 305 305 304 304 303 303 303 302 302 302 302 302 302 301 301 302 301 301
330 330 329 328 326 323 322 321 319 317 315 313 311 310 310 311 313 315 315 316 317 317 317 317 317 317 318 319 320 320 321 321 320 319 319 319 319 318 317 317 317 317 316 315 316 315 314 314 313 313 312 312 312 311 311 310 309 309 309 308 308 307 307 306 306 305 305 305 304 304 303 303 303 302 302 302 301 301 301 301 301 301 301 301 301
330 330 329 329 328 327 326 324 321 318 316 314 313 312 310 309 311 313 314 314 315 315 315 316 316 317 317 318 319 320 320 320 320 319 319 319 319 318 317 317 317 317 316 315 315 315 313 313 313 312 312 312 312 312 311 311 310 309 309 308 308 307 307 307 306 305 305 304 304 303 303 303 302 302 301 301 301 301 301 301 301 300 300 301 301
330 330 329 329 329 328 328 327 325 322 319 316 315 315 311 310 310 310 312 313 313 313 313 313 314 315 316 317 318 319 320 320 320 320 319 319 319 319 318 317 317 317 317 316 315 314 314 313 312 312 312 311 311 312 311 311 310 309 308 308 308 308 307 306 306 305 305 304 304 303 302 302 302 301 301 301 301 301 301 300 300 300 300 300 301
332 331 330 330 329 328 328 328 327 325 324 322 319 317 314 312 311 311 311 312 313 312 312 312 312 313 313 315 316 317 318 318 319 319 319 319 319 319 318 317 317 317 317 316 316 315 314 313 312 312 312 311 311 312 311 311 311 309 309 308 308 308 307 307 306 305 305 304 303 303 302 302 301 301 300 300 300 300 300 300 300 300 300 300 300
332 332 331 330 329 329 329 329 328 326 325 324 320 318 317 317 316 314 312 311 312 312 311 311 311 312 312 312 313 315 316 317 317 317 318 319 319 319 318 317 317 317 317 317 316 315 314 313 312 312 311 310 310 311 311 311 310 310 309 308 308 307 307 307 306 305 305 304 303 302 302 301 301 300 300 300 300 300 300 300 300 300 300 300 299
331 332 331 329 328 329 328 328 329 327 324 322 322 321 321 320 318 315 312 311 312 311 311 311 311 311 311 312 312 313 314 315 316 317 317 317 318 318 318 317 317 317 317 317 316 316 315 313 312 312 311 310 309 310 311 311 310 310 309 308 308 307 307 306 306 305 305 304 303 302 302 301 300 300 300 299 299 299 299 299 299 299 299 299 299
332 332 332 330 329 329 328 327 328 328 325 324 325 325 322 319 316 313 311 311 311 310 310 309 309 309 309 310 310 311 312 313 314 315 316 316 317 317 318 317 317 317 317 316 316 316 315 314 313 312 311 310 310 310 310 310 309 309 309 309 308 307 307 307 306 305 304 304 303 302 302 301 300 300 300 299 299 299 299 299 299 299 299 299 299
331 331 330 329 329 329 328 328 329 328 326 325 323 321 320 319 316 314 312 311 310 309 308 308 307 307 307 306 307 309 310 310 312 313 314 315 316 316 317 317 317 317 316 316 316 315 315 314 313 312 311 310 310 310 309 309 308 307 307 309 309 308 307 307 306 306 305 304 303 303 302 301 300 300 300 299 299 299 298 299 299 298 298 298 298
330 330 330 330 330 330 328 328 329 328 327 326 322 320 320 318 316 315 312 310 308 308 308 308 308 307 306 306 307 308 310 309 309 311 312 313 314 315 316 316 316 316 315 315 315 314 314 314 313 312 311 311 310 310 309 309 308 306 305 307 308 307 307 307 306 306 305 304 304 302 302 301 300 300 300 299 299 298 298 298 298 298 298 298 298
332 332 330 330 330 330 329 329 329 329 329 328 325 323 321 318 317 315 311 308 307 308 309 308 307 307 307 307 305 307 312 311 308 310 310 310 312 313 314 315 315 314 314 315 314 313 313 313 312 312 311 311 310 309 309 308 308 306 304 305 306 306 306 307 307 306 306 305 304 303 302 301 301 300 299 299 298 298 298 298 298 298 298 297 297
333 333 332 330 330 330 330 330 330 329 328 328 327 326 324 323 321 318 314 312 310 309 309 307 307 308 309 309 308 309 312 310 308 310 309 308 310 311 312 313 313 313 313 314 314 313 312 312 311 311 311 310 309 308 308 308 307 306 305 305 305 304 305 306 305 305 306 305 305 304 303 302 301 300 300 299 298 298 297 297 297 297 297 297 297
331 331 332 331 331 331 331 329 328 328 328 328 327 325 324 324 323 321 317 314 312 310 308 307 306 306 307 309 312 314 311 308 310 313 310 307 308 310 311 312 312 312 313 313 313 312 312 311 311 311 310 309 308 307 307 307 307 306 305 305 304 304 305 305 303 303 304 305 306 305 304 303 301 300 300 299 298 297 297 297 297 297 296 297 297
331 330 331 331 332 332 331 329 329 328 328 329 327 325 326 325 324 322 319 315 312 310 309 307 305 304 306 307 309 311 310 309 311 315 314 310 309 308 309 310 310 310 311 311 312 311 311 311 311 311 310 308 307 307 306 306 306 306 305 304 303 303 305 305 303 302 301 302 304 305 305 303 302 301 300 299 297 296 296 297 297 296 296 296 296
330 330 329 331 332 333 332 331 330 328 326 327 326 326 325 323 323 323 321 318 314 311 311 309 306 306 306 305 306 307 306 307 308 310 312 313 312 309 308 307 305 306 307 307 309 310 311 311 311 310 309 308 306 306 306 305 305 305 305 304 303 303 305 305 304 302 301 300 300 302 304 303 302 301 299 297 296 296 296 296 297 296 296 296 296
327 327 327 328 329 330 331 331 330 328 327 327 326 326 323 321 322 324 323 322 318 313 312 311 309 309 308 306 305 304 304 304 305 304 305 309 312 311 309 305 302 304 307 307 308 310 310 309 309 309 308 307 306 306 305 305 305 304 304 304 303 303 304 304 304 303 302 301 300 300 301 302 301 299 296 295 295 296 296 296 296 296 296 296 297
326 326 326 325 326 327 328 328 328 327 327 327 327 326 324 322 324 325 323 323 321 315 313 313 312 310 309 307 305 303 303 303 303 303 303 304 307 309 308 305 304 307 309 309 309 310 309 307 307 308 307 306 305 305 305 305 304 304 304 303 302 303 303 303 302 301 301 302 302 301 300 300 299 296 295 295 295 295 296 296 296 296 295 296 297
326 326 325 325 325 326 327 328 329 328 327 327 327 326 325 323 323 323 322 322 320 317 315 314 313 310 309 308 306 305 305 305 305 305 304 303 304 305 306 306 306 307 308 308 308 308 307 307 306 306 307 306 303 302 303 304 304 304 303 303 302 301 302 301 299 299 299 300 301 300 300 299 296 294 292 293 294 295 295 296 296 295 295 296 296
325 325 325 325 325 325 326 328 329 329 329 328 328 327 327 326 324 323 322 322 321 319 316 314 312 310 309 308 307 307 306 307 308 308 306 305 305 306 306 307 306 306 306 306 306 306 306 306 306 306 307 305 302 300 300 302 303 303 303 302 301 300 300 300 298 297 297 298 298 298 298 296 292 290 289 290 292 293 294 294 293 293 294 295 296
324 324 325 325 325 324 325 325 325 326 326 326 326 326 326 325 325 324 323 322 322 320 317 316 314 312 311 310 308 308 308 308 308 308 307 306 305 305 306 307 306 307 306 305 304 304 305 306 306 306 306 306 304 300 297 298 301 301 301 301 300 298 298 298 297 297 296 295 294 293 293 291 288 288 289 289 290 291 291 291 290 292 294 295 295
324 324 324 323 323 323 323 323 323 322 323 323 323 323 323 322 323 324 323 323 323 322 320 318 317 316 315 312 310 310 309 309 308 307 306 306 305 305 306 306 305 305 304 303 303 302 304 307 306 306 306 307 306 302 298 297 298 299 299 299 298 297 297 296 294 296 296 292 290 290 289 288 288 288 288 288 288 288 288 288 289 293 294 294 294
322 322 322 322 322 321 322 322 321 321 321 320 320 321 322 322 322 323 323 322 322 322 321 319 318 317 315 313 311 311 310 309 309 308 307 306 306 306 307 307 307 305 303 302 301 299 303 306 305 305 306 306 305 303 300 298 298 298 296 295 295 295 295 292 291 294 295 292 290 290 288 288 288 288 287 286 286 287 287 288 291 292 293 293 293
320 320 320 320 320 320 320 320 320 320 319 319 318 318 319 321 322 322 322 322 321 321 320 319 318 317 315 314 312 311 311 311 310 309 309 307 307 307 307 307 308 308 307 305 302 300 302 304 303 304 305 304 304 303 301 300 298 297 295 293 293 294 293 290 288 292 293 291 291 290 288 288 287 286 285 285 286 287 288 289 290 291 291 291 291
317 317 318 318 318 318 318 318 318 318 318 318 318 317 317 318 318 319 320 320 320 319 319 318 318 317 316 315 314 313 312 311 310 309 309 308 307 307 308 307 307 308 308 309 307 303 303 303 303 304 305 303 303 302 301 300 298 296 294 293 292 292 292 288 286 288 289 290 290 289 288 287 285 285 285 286 287 288 289 290 290 290 290 290 290
315 316 316 316 317 317 317 317 317 317 317 316 316 316 316 316 316 316 316 316 316 316 316 316 316 316 316 315 314 313 312 311 311 310 309 309 309 309 308 307 306 306 306 308 308 306 305 304 305 305 305 304 303 301 299 298 296 294 292 291 291 291 290 287 285 287 288 289 288 287 286 285 284 285 285 286 288 289 290 290 290 290 289 289 289
314 314 315 315 315 316 316 316 316 316 316 315 315 315 315 315 315 315 314 314 313 313 314 314 314 314 313 312 311 311 311 311 311 311 311 310 310 309 308 306 306 305 305 305 306 306 305 305 305 305 305 304 302 300 297 297 295 292 290 289 289 289 288 286 285 288 288 287 286 285 285 284 284 285 286 288 289 289 290 289 289 289 288 288 288
312 313 313 314 314 314 314 315 315 315 314 314 314 314 314 314 314 314 314 313 312 311 312 312 312 311 311 310 310 310 310 309 309 309 310 311 310 309 308 306 305 304 304 304 304 305 304 303 303 303 304 303 300 298 297 295 293 290 288 288 288 288 287 285 286 288 288 286 285 284 284 284 285 286 287 288 289 289 289 288 288 288 287 286 286
310 311 312 312 312 313 313 313 313 313 313 313 313 313 313 313 313 313 313 312 311 310 310 310 310 309 309 309 310 310 309 309 309 309 309 310 310 309 308 306 305 304 304 303 303 303 303 301 301 301 301 301 298 296 296 294 290 288 287 287 287 287 286 284 285 287 286 284 284 284 284 285 286 287 288 289 289 288 287 287 287 286 286 285 284
309 310 310 310 311 311 311 312 312 312 312 312 312 312 312 312 312 312 312 311 311 310 309 309 309 309 309 309 309 309 309 309 309 309 309 309 308 308 307 306 304 304 304 303 302 302 302 300 298 298 298 298 296 294 294 292 289 287 286 286 286 286 285 284 284 284 284 283 284 284 284 286 286 288 288 289 288 287 286 286 285 285 284 283 282
308 309 309 309 309 309 310 310 310 311 311 311 311 311 311 311 311 311 311 311 310 309 308 308 308 308 309 309 309 308 308 308 308 308 308 308 308 307 306 306 305 304 304 303 302 301 302 300 297 296 296 295 293 292 291 289 287 286 285 285 285 285 284 283 283 283 283 284 284 284 285 286 287 288 288 288 287 286 285 285 284 283 282 282 280
307 308 308 308 308 308 308 309 309 309 310 310 310 310 310 310 311 311 310 310 310 309 307 307 307 307 308 308 308 308 308 308 307 307 306 306 307 306 306 305 305 304 304 303 302 301 301 299 295 294 294 292 290 290 289 287 285 285 285 284 284 284 283 283 283 284 284 284 285 285 286 287 288 288 288 287 285 284 284 283 282 282 281 280 278
307 307 307 307 307 307 307 308 308 308 308 308 308 309 309 309 310 309 309 308 308 307 307 306 306 306 306 307 307 307 307 306 306 306 305 305 305 305 305 304 304 304 303 302 301 300 300 299 295 291 290 290 288 287 287 286 285 284 284 284 283 283 283 284 284 284 285 285 286 286 287 288 288 287 287 285 284 283 282 282 281 281 280 278 277
306 306 306 306 306 306 306 307 307 307 307 307 307 307 308 308 308 308 308 307 307 306 306 306 306 306 306 307 307 306 306 305 305 305 305 304 304 304 304 303 303 302 301 300 300 299 298 298 295 291 288 287 287 286 285 285 284 283 283 283 283 284 284 284 285 285 285 286 286 287 288 287 287 286 285 283 282 281 281 280 280 280 278 277 276
306 305 305 305 305 305 305 306 306 306 306 306 306 307 307 307 307 307 307 306 306 306 306 306 306 306 306 307 306 305 305 304 304 304 304 304 304 303 303 303 303 301 300 299 298 297 297 296 294 291 288 286 286 285 284 284 284 283 283 283 283 284 285 285 285 285 286 286 287 287 286 286 286 285 283 281 281 280 280 279 279 278 277 276 277
306 305 305 305 305 305 305 305 305 305 305 305 306 306 306 306 306 306 306 305 304 304 304 305 305 306 306 307 306 305 304 303 303 304 304 304 303 303 303 303 302 300 299 298 297 296 295 295 292 290 287 286 285 285 284 283 283 283 284 284 284 284 285 285 285 286 286 287 286 285 284 284 284 282 281 280 279 279 278 278 278 277 275 276 277
306 306 305 305 305 305 305 305 304 304 305 305 305 306 305 305 305 305 304 304 303 303 303 304 305 305 306 306 305 304 302 302 303 303 303 302 302 301 301 301 301 299 298 297 295 294 294 293 291 289 286 285 284 284 283 283 283 284 284 285 284 284 285 285 285 286 286 286 285 283 283 283 282 280 279 278 278 278 277 277 277 276 275 276 277
305 305 305 305 304 304 304 304 304 304 304 305 305 305 305 305 304 304 303 302 302 302 303 303 304 304 305 305 304 303 302 302 302 302 302 301 301 301 300 300 300 299 297 295 294 294 293 293 291 288 286 285 284 284 284 284 284 284 285 285 284 284 284 284 283 284 285 285 284 282 281 281 281 280 279 278 278 277 277 277 276 275 275 276 276
304 304 304 304 303 303 303 302 303 303 303 303 304 304 304 304 304 303 302 301 302 302 302 303 303 303 304 304 303 302 301 301 301 301 301 301 301 300 300 299 299 298 297 296 294 293 293 293 291 288 287 286 284 284 284 284 285 285 285 285 284 284 283 283 282 282 283 284 283 281 280 280 280 279 279 278 278 277 276 276 275 274 275 275 275
302 302 302 302 302 302 301 301 301 301 301 302 302 302 303 303 303 302 300 300 301 301 301 301 302 302 302 302 302 301 300 300 300 301 301 301 301 300 299 299 298 297 297 296 295 294 293 292 290 288 287 286 284 284 285 285 285 285 285 285 284 284 284 284 283 282 282 282 282 281 280 280 279 278 278 278 277 277 276 275 274 274 275 274 273
301 300 300 300 300 300 300 300 300 300 300 301 300 301 301 301 302 300 299 299 299 300 300 300 301 301 301 301 302 301 300 299 299 300 300 300 300 299 298 297 297 296 296 295 296 295 294 293 291 288 287 286 285 284 285 285 285 286 286 285 284 284 285 284 283 283 282 281 281 280 279 279 279 278 278 278 277 276 275 274 273 274 273 273 272
299 299 299 299 299 299 299 299 299 299 300 300 299 299 300 300 300 300 298 298 298 299 299 299 300 300 300 300 301 300 300 300 299 299 299 299 299 298 297 296 296 295 295 294 294 294 294 293 292 290 288 287 286 286 286 286 286 286 286 285 285 285 285 284 283 283 282 280 281 280 279 279 279 278 278 278 277 276 275 273 273 273 272 272 271
298 298 298 298 298 298 298 298 298 299 299 299 299 299 299 299 299 298 297 297 297 298 298 298 299 299 299 299 299 300 300 299 299 299 298 298 297 296 295 294 294 294 293 293 293 292 292 292 292 291 290 289 288 287 287 286 286 286 287 287 286 285 284 282 282 282 280 280 281 280 278 278 278 277 277 277 276 275 273 272 272 272 272 271 271
297 297 297 297 296 297 297 297 297 298 299 298 298 298 298 298 298 297 296 296 296 297 297 297 298 298 298 298 298 298 298 298 298 298 297 296 295 293 293 292 292 292 292 292 292 291 291 291 291 291 291 289 289 288 287 287 287 287 287 286 285 284 282 280 279 279 280 280 280 279 278 277 277 277 277 276 275 274 272 272 272 272 271 271 271
298 297 297 297 296 296 296 296 296 297 297 298 298 298 298 297 297 296 295 295 295 295 296 296 296 296 297 297 297 297 297 297 297 297 295 294 293 292 291 290 290 289 289 290 290 289 290 290 290 291 290 289 289 288 287 287 287 288 287 284 283 283 282 280 278 278 279 279 279 279 277 277 277 276 275 275 274 273 272 271 271 272 271 271 270
297 297 296 297 297 296 295 296 295 295 296 297 296 297 297 297 296 295 295 294 294 294 294 295 295 295 295 296 296 296 296 296 296 295 294 293 291 291 290 289 288 288 288 288 288 288 289 289 289 289 289 289 288 288 287 288 288 289 288 286 284 283 282 280 279 278 277 277 278 278 276 275 275 275 274 273 272 272 272 271 271 271 271 271 270
296 296 296 296 297 297 296 295 295 294 295 296 295 295 296 296 296 295 294 293 293 293 293 293 294 294 294 295 295 295 295 295 294 293 293 291 290 290 289 288 288 288 288 288 288 288 288 288 288 288 288 288 288 287 287 287 287 288 289 288 286 284 283 280 279 277 276 276 277 277 275 274 274 274 273 272 272 272 271 271 271 271 271 270 269
Wind_Speed
11 10 10 10 10 10 10 10 9 9 9 10 13 13 12 11 11 11 11 10 10 10 10 10 10 10 11 11 12 13 14 15 15 16 16 14 14 14 13 12 9 8 9 7 9 9 7 8 9 8 8 8 8 8 8 8 8 8 8 8 8 8 8 9 9 8 8 9 8 8 8 8 8 8 8 8 7 7 7 7 7 7 7 8 9
12 12 12 11 11 11 11 11 10 10 10 11 12 13 13 12 12 11 11 11 11 11 11 11 11 11 11 12 13 14 15 16 16 16 16 15 15 16 14 12 10 9 8 8 10 10 8 10 8 7 8 7 7 8 8 8 8 8 8 8 8 8 8 8 8 8 8 8 7 7 7 7 7 7 7 6 6 6 6 6 6 6 6 7 7
14 13 13 13 13 13 13 12 12 11 11 11 12 14 14 13 13 12 12 12 12 12 12 12 11 12 12 13 13 14 15 17 17 15 16 17 17 17 15 14 12 10 8 8 12 11 9 11 9 8 8 8 8 8 8 7 8 8 8 8 8 7 7 7 7 7 7 7 7 7 6 6 6 6 6 5 5 5 5 5 5 5 5 6 6
16 15 14 14 14 14 14 14 13 12 12 12 13 14 15 15 14 14 14 14 14 14 13 13 13 13 13 14 14 15 16 17 17 16 18 19 18 18 16 16 14 12 10 10 13 12 11 12 10 10 10 9 9 8 8 8 8 9 9 9 8 8 8 7 7 7 7 7 6 6 6 6 5 5 4 4 4 3 3 3 3 4 4 5 6
17 17 16 16 16 15 15 15 14 14 14 13 14 15 16 17 16 15 15 16 16 15 15 15 14 14 14 15 15 16 17 18 18 17 19 21 20 19 19 19 17 15 13 14 16 13 13 14 12 12 12 11 11 10 10 9 9 10 10 9 8 8 8 8 7 7 7 7 6 6 5 5 5 4 3 3 3 2 2 2 2 3 4 4 5
20 18 18 18 18 17 17 17 16 15 15 15 16 16 17 18 18 18 17 17 17 17 17 16 16 16 16 16 17 18 19 20 19 18 20 22 22 21 21 21 20 19 17 17 19 17 16 16 14 15 14 13 13 12 11 11 11 11 10 10 9 8 8 8 8 7 7 6 6 6 5 5 4 4 3 3 2 1 0 1 1 2 3 4 5
22 21 20 19 19 20 19 18 18 17 17 17 17 18 18 19 20 20 19 19 19 18 18 18 18 17 17 17 19 20 21 21 21 20 21 23 24 24 23 23 23 22 20 20 21 20 20 19 16 16 16 15 15 14 13 12 12 12 11 11 10 9 9 9 9 8 8 7 7 7 6 6 5 4 4 3 2 2 1 2 2 3 4 4 5
23 24 23 20 20 21 21 20 19 20 20 19 19 19 19 20 21 21 22 21 21 20 20 20 19 19 18 19 20 21 22 22 23 23 22 24 26 26 25 26 25 24 23 23 23 23 23 21 18 18 18 17 16 16 15 14 14 13 13 12 12 11 10 10 10 9 9 9 9 8 7 7 6 5 4 4 3 3 3 3 3 4 5 5 6
24 23 24 24 22 21 22 22 21 21 22 22 21 21 21 22 22 22 23 23 23 22 22 22 21 21 20 21 22 23 23 24 25 25 25 26 27 28 28 28 27 27 26 26 26 27 26 24 22 22 22 21 18 18 17 16 16 15 14 14 13 13 12 12 12 11 11 10 10 9 8 8 7 6 5 5 5 5 4 5 5 5 6 6 7
29 25 23 24 24 22 22 23 24 23 22 23 23 23 23 23 24 24 25 26 25 25 24 24 24 23 23 23 24 24 24 25 26 27 27 28 29 30 30 30 30 29 29 29 29 29 28 27 25 25 26 24 21 20 20 19 18 17 16 15 15 15 14 13 13 12 12 12 11 10 10 9 8 7 7 7 6 6 6 6 6 7 7 7 8
30 30 29 27 27 26 25 26 27 26 26 26 26 26 25 25 26 27 28 28 27 27 26 25 25 25 25 25 25 26 26 27 28 28 28 30 30 30 32 32 31 31 31 31 31 31 30 29 28 28 28 26 23 23 23 22 20 19 18 17 17 16 16 15 14 14 14 13 12 12 11 10 9 9 9 8 8 7 7 8 8 8 8 9 9
28 31 32 32 30 29 29 30 30 29 30 29 27 28 28 28 29 30 30 30 29 28 27 26 25 24 24 26 26 26 28 29 30 30 30 31 31 32 33 33 33 33 33 33 33 33 32 31 31 31 30 28 26 27 26 24 22 21 20 20 19 18 18 17 17 16 16 15 14 14 13 11 11 10 9 9 9 8 8 9 9 9 10 10 11
31 30 28 28 30 30 30 31 29 27 29 31 31 30 30 30 30 30 30 30 30 29 27 24 21 20 20 22 26 27 28 30 31 32 33 34 34 35 35 35 36 35 35 35 35 35 35 34 34 34 33 30 29 31 30 28 26 24 22 22 22 20 20 19 19 18 18 17 16 15 14 13 12 11 11 10 10 9 9 10 10 11 11 12 12
28 29 27 28 31 32 30 28 30 29 29 33 33 31 32 32 31 31 30 30 31 29 26 22 18 18 13 11 16 22 27 30 32 34 36 36 36 37 37 37 38 38 36 36 37 37 37 36 36 36 35 34 33 34 35 33 30 27 24 24 24 22 22 21 20 20 19 19 18 17 16 14 13 13 12 12 11 11 10 11 11 12 12 13 13
27 29 33 35 36 35 30 26 31 35 33 33 32 31 32 33 32 32 30 29 28 28 29 26 22 17 8 5 6 7 14 22 31 38 39 38 38 38 39 39 39 38 37 38 39 39 38 38 38 38 37 37 36 36 37 36 33 30 27 27 27 24 22 22 22 22 21 20 19 18 17 16 15 14 13 12 12 12 11 11 12 12 13 13 13
30 29 31 34 36 36 32 29 32 35 35 32 30 32 34 34 32 32 31 28 28 29 32 32 28 20 8 3 1 1 5 9 17 29 35 37 40 40 41 41 41 39 39 40 41 40 40 39 39 39 39 39 39 39 39 37 35 32 29 30 30 27 25 24 22 22 22 22 21 20 20 18 17 15 13 13 12 12 12 12 12 12 13 13 14
30 29 29 29 31 33 35 37 35 35 36 32 30 33 36 35 32 33 34 33 33 33 33 34 35 32 20 8 2 2 4 4 5 14 21 28 34 39 42 43 42 41 41 42 42 42 42 41 40 40 40 40 40 39 39 38 36 34 32 32 32 30 29 28 24 22 23 23 23 23 22 21 19 17 14 13 13 12 12 12 12 12 13 13 14
29 29 29 29 31 34 38 39 36 35 37 33 31 34 35 33 30 31 36 38 35 31 30 32 35 38 35 26 18 11 5 3 2 4 9 16 23 31 38 42 44 44 44 45 45 45 44 42 43 42 42 42 41 40 39 38 37 36 35 34 32 31 33 32 28 25 23 23 24 25 24 22 19 17 14 13 14 13 12 12 11 12 13 13 14
30 30 31 31 32 34 36 35 34 36 37 35 36 37 36 35 32 32 34 37 36 30 29 31 31 36 40 39 36 29 19 10 6 4 4 7 15 23 30 35 41 45 47 47 46 46 45 45 45 45 45 44 42 41 39 37 37 37 36 34 32 32 34 33 32 30 27 25 25 24 23 22 20 17 15 14 13 12 11 10 10 11 13 14 14
30 31 31 31 31 30 30 31 34 35 35 35 38 38 37 37 35 32 31 34 37 35 32 30 30 33 38 41 41 38 30 22 16 11 5 4 9 16 23 29 35 41 43 44 46 47 48 48 47 47 47 46 44 43 41 39 39 39 38 35 33 33 34 34 33 32 30 30 29 25 20 19 19 17 15 13 11 10 9 8 9 10 12 13 15
30 30 30 31 31 31 30 31 32 32 33 34 36 37 38 38 36 33 31 33 38 39 35 33 34 34 33 34 35 33 30 26 24 19 11 8 8 9 14 18 23 33 39 40 43 46 49 50 49 49 49 47 46 45 44 43 43 41 39 37 34 35 35 35 33 32 31 31 32 30 25 21 20 15 11 10 9 7 7 7 8 9 10 14 17
29 29 29 29 30 31 32 33 34 34 36 37 37 38 39 38 37 37 34 34 37 39 38 38 37 35 33 30 28 27 24 22 24 25 18 15 12 11 14 14 15 24 32 35 38 41 45 48 49 51 51 49 48 47 46 46 45 43 41 38 36 36 36 34 32 31 31 31 30 30 28 25 23 16 10 9 7 6 6 7 8 9 10 14 18
28 28 28 28 28 30 32 34 35 35 34 34 34 35 37 37 37 37 36 34 34 35 37 40 38 36 35 34 31 29 26 23 26 26 21 17 13 11 18 21 19 23 27 29 32 34 38 42 46 49 50 50 50 49 48 48 47 44 41 39 38 37 36 33 32 31 31 30 28 28 27 25 22 16 13 11 7 5 4 5 6 8 11 15 18
27 28 28 28 28 30 31 33 34 34 32 31 29 29 30 31 32 32 32 32 33 35 36 39 39 37 37 37 36 34 33 33 32 28 26 26 20 14 18 20 17 22 28 27 28 30 32 35 40 43 45 49 50 50 50 49 49 47 44 42 41 39 37 33 30 29 30 30 27 26 24 22 20 17 16 13 9 6 5 6 8 10 14 17 18
27 28 28 28 28 30 31 32 33 34 35 34 32 29 27 27 29 32 34 35 37 37 38 39 39 40 40 39 38 38 38 39 37 32 30 29 23 17 20 20 16 19 23 23 25 27 30 34 37 37 40 44 45 47 49 50 51 50 47 45 42 40 39 35 28 25 27 28 26 23 21 19 19 18 16 14 13 12 11 13 14 15 17 17 18
27 27 27 27 27 28 29 30 32 32 33 34 34 33 31 31 33 36 39 40 38 36 37 39 39 41 41 40 39 40 40 40 37 35 31 28 24 20 18 17 18 19 19 21 23 22 25 34 36 34 36 40 41 44 46 48 49 50 48 46 43 41 39 36 29 23 24 24 23 22 22 21 19 18 17 16 16 17 17 18 17 16 16 16 16
27 27 26 25 26 26 27 28 28 29 30 30 31 31 32 32 34 35 35 34 33 33 35 37 38 40 40 40 39 38 39 39 37 37 35 34 32 30 21 13 13 14 13 17 21 23 29 33 32 32 35 37 38 39 40 43 44 45 45 44 44 43 40 36 31 26 23 23 23 24 23 21 20 18 18 18 18 19 20 19 16 13 14 15 14
26 26 25 25 25 25 26 26 26 27 27 28 28 29 31 32 32 33 33 32 30 31 32 34 36 37 37 38 38 38 39 39 39 39 39 38 36 34 29 20 14 10 8 10 12 18 27 30 29 32 34 35 34 33 35 39 40 40 40 41 42 43 40 35 32 30 27 26 26 25 22 21 21 19 18 19 19 20 20 19 15 12 12 12 12
25 25 24 24 24 24 25 25 25 26 26 26 27 28 29 31 33 33 34 33 31 31 32 32 33 34 34 35 36 38 38 37 37 37 37 37 37 36 35 32 25 13 7 9 8 10 16 23 25 27 29 31 31 30 32 35 36 36 36 37 39 41 39 36 33 32 30 28 27 24 22 21 20 19 19 19 19 18 17 15 12 10 10 11 11
24 24 24 24 24 24 24 24 24 24 25 25 26 27 28 30 32 33 33 33 33 34 34 34 33 32 32 32 32 34 35 35 35 36 36 37 38 39 38 38 34 23 14 11 10 11 13 18 23 24 24 25 26 28 30 31 31 33 33 33 35 37 37 35 33 31 29 28 26 24 22 21 19 20 20 18 16 15 13 9 8 8 9 9 10
23 23 24 24 24 24 24 25 24 25 25 25 25 25 26 28 30 31 32 32 33 35 35 35 35 34 32 32 32 32 33 32 34 35 37 39 40 40 39 37 36 34 28 18 11 11 14 17 21 23 23 23 22 25 27 28 29 30 30 31 32 33 34 33 31 29 28 27 26 24 21 20 20 19 17 15 14 12 8 6 6 6 7 7 8
21 22 23 24 24 24 24 25 26 26 27 26 26 26 26 27 29 30 31 30 32 34 34 34 34 34 33 32 33 34 33 33 34 36 37 39 40 40 38 37 36 35 34 25 14 14 19 20 19 20 22 22 22 23 25 26 27 27 27 28 30 30 32 32 31 29 29 28 25 23 21 21 21 17 14 14 14 10 7 5 5 5 5 6 7
19 21 22 22 23 24 24 25 26 26 27 27 27 27 27 28 28 29 30 30 31 33 33 33 33 32 31 32 34 36 35 33 34 36 36 38 39 39 38 37 36 35 34 29 20 18 22 23 21 21 21 22 22 22 23 24 24 24 25 27 28 30 31 32 32 30 29 27 24 22 22 21 19 16 15 15 13 12 10 5 4 5 5 6 9
17 19 20 21 22 23 23 24 25 26 27 27 27 27 28 29 30 30 30 30 32 33 32 33 33 32 32 33 35 35 34 33 34 36 36 37 37 37 37 36 36 36 35 34 27 21 21 22 22 21 20 21 22 22 22 24 24 25 26 27 28 30 31 33 32 28 26 24 23 22 22 20 18 16 16 15 14 13 9 4 4 5 6 8 10
16 18 19 20 21 22 23 24 25 26 27 27 27 28 29 29 30 31 31 31 32 33 33 34 34 33 32 33 35 35 33 33 34 35 36 36 36 36 37 36 37 37 37 37 33 26 23 21 20 21 21 22 22 22 22 23 24 25 26 27 28 29 30 31 29 27 24 23 23 22 21 19 17 17 15 14 13 11 7 5 5 7 9 10 10
15 16 17 18 19 21 23 24 25 26 27 28 28 29 30 30 31 32 32 32 33 33 33 33 33 33 33 33 34 34 33 32 33 34 34 35 35 36 37 37 37 38 38 38 37 33 28 20 17 21 22 22 22 22 23 23 23 25 27 28 28 29 29 28 27 26 24 23 23 21 20 19 18 16 16 14 12 9 7 7 7 8 9 10 8
16 15 16 17 18 20 21 22 24 25 26 27 28 29 30 31 32 33 33 33 33 33 33 33 33 33 33 33 33 32 32 33 33 33 33 33 34 35 36 36 36 37 36 35 36 35 31 23 18 18 20 21 21 21 24 26 25 25 25 27 29 29 29 27 26 25 24 23 22 20 18 18 17 16 15 12 10 9 9 8 8 9 9 8 7
18 17 17 17 18 19 21 21 23 24 25 26 28 29 30 31 32 33 33 33 33 33 33 33 33 33 33 33 33 32 32 34 33 32 32 33 34 34 35 35 35 35 34 33 33 32 31 27 22 19 21 23 22 22 25 29 30 29 28 27 28 30 30 28 26 24 24 22 20 19 19 18 17 16 13 11 9 9 9 9 9 9 8 6 6
22 21 19 19 18 19 21 21 22 23 24 25 27 28 30 31 32 33 33 33 33 33 33 33 33 33 34 34 33 32 32 34 34 34 33 33 33 34 34 35 34 33 31 31 30 29 28 26 23 21 23 24 23 24 26 27 29 31 33 32 28 27 28 28 27 24 22 21 19 19 19 18 15 14 12 11 11 10 9 9 9 8 6 5 4
24 23 22 22 21 21 21 21 22 22 24 25 26 27 29 30 31 33 33 33 33 33 33 33 33 33 34 34 33 32 33 34 35 35 34 33 33 34 34 33 33 32 30 29 28 27 26 24 21 21 23 24 24 24 27 29 29 30 34 35 30 28 27 26 26 24 22 22 21 19 17 16 14 12 12 11 11 10 9 9 7 6 4 4 3
24 23 23 23 24 24 24 23 23 23 24 25 25 26 28 30 31 32 33 33 33 33 33 33 33 33 34 34 33 32 33 34 34 34 33 33 32 33 33 32 31 31 29 27 26 24 24 21 19 19 21 22 26 28 29 31 32 30 30 29 26 26 26 23 22 23 23 23 22 19 17 16 14 12 11 11 10 9 8 6 5 4 3 2 3
23 23 24 24 24 24 25 25 24 24 25 25 24 25 26 28 29 31 32 33 33 33 33 34 34 34 34 34 33 32 32 33 33 33 32 31 31 32 33 32 31 30 28 26 25 25 23 21 20 22 19 18 27 32 30 28 30 29 28 25 24 26 25 21 17 18 21 22 21 20 17 15 13 11 10 11 10 8 6 4 3 4 3 3 5
23 23 24 25 25 25 25 26 26 26 26 25 24 24 25 26 28 29 31 33 33 33 34 34 35 35 34 34 33 31 31 32 32 32 31 30 30 31 32 32 32 31 30 28 27 26 25 21 20 23 21 19 25 30 28 26 28 29 29 29 29 30 26 19 14 14 19 22 22 22 18 13 12 11 11 10 9 6 4 3 3 4 3 3 4
24 24 24 24 25 25 26 27 28 28 27 26 25 24 25 25 26 28 30 32 33 34 34 34 35 35 34 34 32 30 31 32 32 31 30 30 30 30 30 31 31 32 32 31 29 27 27 24 21 23 23 21 25 28 28 28 29 31 30 28 30 30 26 21 17 17 22 24 23 22 17 12 11 11 11 10 8 5 3 3 4 3 2 2 3
26 26 26 26 26 26 26 27 29 29 29 28 26 25 25 25 26 27 29 31 32 34 34 34 34 34 34 33 31 29 30 31 30 30 30 29 29 29 28 29 30 31 31 31 31 30 29 28 25 24 25 25 28 31 33 34 34 34 29 26 28 29 24 22 22 23 24 25 23 20 16 12 12 12 12 11 8 5 3 4 4 3 2 2 4
29 29 28 28 27 27 27 28 30 31 30 30 28 27 26 26 25 26 28 30 32 34 34 34 34 34 34 33 32 30 30 29 29 29 29 29 29 28 28 28 29 30 30 30 30 30 30 30 29 28 29 31 33 36 38 39 39 37 31 27 28 26 22 20 22 24 25 23 21 17 13 13 14 13 12 10 7 4 4 4 4 4 3 3 5
31 31 30 30 29 29 28 28 30 32 31 29 29 28 27 26 26 26 28 29 31 33 34 34 34 34 34 33 33 32 31 30 29 29 29 29 28 27 27 27 28 29 29 29 30 30 30 30 31 32 32 34 35 37 40 39 37 37 34 31 31 28 23 22 22 23 22 20 19 14 11 14 17 14 11 10 7 5 5 5 7 7 4 4 6
33 32 32 32 31 31 30 29 29 32 31 29 28 28 27 26 26 26 27 29 31 33 34 33 33 34 33 33 33 33 32 31 30 29 28 27 26 26 25 25 26 26 27 27 27 29 30 29 29 30 31 32 34 36 39 37 35 35 32 29 29 28 26 23 20 20 19 17 18 15 11 13 16 13 10 9 6 5 6 8 11 10 4 5 7
36 35 34 34 33 33 32 31 29 31 32 29 27 28 27 26 26 26 27 28 30 32 33 33 32 32 32 32 32 32 32 31 30 29 27 25 25 24 23 23 23 23 23 23 23 25 26 26 27 28 29 31 33 33 35 36 36 35 32 30 28 28 27 20 14 15 17 17 18 17 12 12 13 12 9 6 6 5 7 11 14 12 6 6 9
36 35 35 36 36 34 33 33 31 31 33 30 25 25 26 25 25 26 26 27 29 31 32 32 31 31 31 31 30 31 32 31 30 29 26 25 24 24 23 22 22 21 22 21 21 22 22 23 25 27 27 30 30 30 32 35 34 34 33 33 31 31 29 21 14 15 16 16 18 16 11 10 11 10 7 4 3 4 7 12 15 14 8 7 10
35 36 35 35 37 37 35 34 32 31 33 32 27 23 23 24 24 25 25 26 28 30 30 30 30 30 30 30 30 30 31 31 30 28 26 24 24 25 24 23 23 23 24 24 25 26 26 25 26 26 26 28 29 29 30 32 32 31 31 31 31 30 28 24 21 17 10 11 18 16 11 11 11 9 7 4 1 3 8 12 14 14 10 10 11
Wind_Direction
230 230 231 230 230 230 230 233 235 235 234 226 219 218 218 216 215 215 217 216 214 212 208 208 209 212 217 219 214 206 201 197 193 189 186 188 194 196 193 189 190 179 166 171 177 168 167 165 158 160 161 163 165 164 162 161 162 162 162 161 159 158 157 155 153 153 149 144 140 134 130 126 122 121 115 111 106 99 96 89 82 77 71 66 61
237 236 236 236 235 235 235 235 236 236 236 234 226 222 224 224 221 221 221 220 218 216 215 214 215 216 217 221 221 215 209 203 199 198 199 201 202 198 197 201 205 199 184 181 187 183 181 178 172 175 174 175 175 172 172 171 172 171 171 171 170 169 167 166 164 164 160 153 151 144 138 135 129 127 124 119 112 107 101 92 83 76 69 65 58
240 240 240 240 240 239 239 238 238 239 236 236 231 226 225 227 227 225 225 224 223 222 222 222 223 223 221 222 224 220 215 209 206 210 213 208 203 200 202 210 215 215 200 186 192 190 188 189 187 189 188 187 187 184 184 184 186 183 181 181 180 182 179 178 177 173 171 167 165 158 150 147 140 134 132 127 119 113 105 95 84 75 67 61 53
239 242 244 244 245 244 244 244 243 242 240 238 234 230 227 226 228 227 228 227 227 228 228 229 229 229 227 224 224 222 217 213 213 219 219 212 206 206 212 217 218 219 209 190 194 196 196 199 201 200 196 196 196 196 199 199 202 197 190 189 190 194 192 190 189 186 185 183 180 174 168 162 155 149 141 136 129 117 107 92 76 69 61 51 45
243 243 244 245 248 246 246 247 247 245 243 241 238 235 232 229 229 228 229 229 230 231 231 232 231 231 230 227 226 223 219 218 221 225 221 216 214 216 222 224 219 217 210 195 198 206 205 205 207 204 199 201 202 204 209 209 211 208 200 198 200 203 202 202 202 200 200 199 197 192 187 180 172 169 160 154 142 123 100 76 56 48 42 33 28
243 245 246 245 246 247 248 248 247 248 245 243 241 239 236 234 233 231 232 233 233 234 235 235 234 232 231 230 227 225 222 222 226 230 226 223 223 225 226 226 223 220 216 203 202 211 213 208 203 204 205 208 206 206 211 213 214 212 210 208 209 210 209 210 211 211 214 216 216 211 206 202 197 196 192 189 178 170 159 29 11 13 11 3 3
242 241 244 248 250 248 247 247 245 245 246 245 243 241 240 239 238 236 234 234 235 236 237 238 238 235 233 232 231 228 226 226 228 231 230 229 230 231 229 227 226 225 223 214 209 210 214 212 207 209 212 212 213 211 211 213 213 213 215 215 215 217 216 218 219 220 223 226 228 226 223 220 215 213 214 218 223 239 270 305 319 334 337 336 341
247 244 241 244 251 253 252 250 246 244 242 242 243 243 243 241 241 241 239 238 237 237 238 239 239 238 236 234 233 231 229 230 231 231 231 232 232 233 231 230 229 229 228 223 217 215 216 216 214 216 215 213 213 214 214 212 211 214 217 217 219 221 221 222 223 225 227 229 230 232 232 233 231 227 230 240 250 263 276 292 302 311 317 321 328
244 249 246 241 243 248 253 252 250 249 244 241 242 243 243 242 242 243 243 241 239 239 240 241 241 239 238 237 236 234 233 233 233 232 231 233 234 234 233 233 232 231 230 227 224 222 224 224 221 218 218 217 215 215 216 212 212 216 216 220 222 224 226 225 226 227 229 229 227 229 233 237 241 243 248 255 263 272 280 288 294 302 309 314 321
238 240 244 245 243 240 246 249 246 247 248 246 243 242 242 242 243 243 243 241 240 241 242 243 242 239 238 239 239 237 236 236 236 235 234 234 236 236 235 234 233 233 231 229 227 226 227 229 225 220 222 224 219 217 219 215 214 214 214 220 222 226 228 224 225 228 230 228 223 227 232 236 241 246 254 258 264 273 281 288 292 298 305 311 316
243 239 237 238 238 236 238 243 242 240 241 240 238 237 238 242 244 244 241 240 241 244 244 242 240 238 238 240 241 241 240 239 238 237 237 237 237 237 237 235 234 233 232 231 229 228 228 227 225 222 226 229 222 217 219 216 214 215 216 218 219 224 227 223 226 229 229 227 223 227 232 236 241 246 254 259 265 272 278 286 291 297 303 308 313
248 245 241 236 235 236 237 238 239 239 238 236 237 239 238 240 240 238 237 236 237 239 239 237 234 235 238 240 240 240 241 241 239 238 238 238 238 238 237 237 236 235 234 233 231 230 230 228 227 225 228 231 225 219 218 215 214 215 216 218 217 220 224 224 226 226 226 226 225 229 232 236 241 245 252 257 264 270 275 283 289 295 300 305 309
242 241 245 247 242 240 242 241 240 244 245 243 243 242 238 236 235 233 233 234 234 234 233 230 227 231 237 242 243 241 242 242 240 240 239 238 238 238 237 237 237 236 235 235 233 232 231 230 229 229 230 232 228 221 220 218 217 217 218 219 218 218 221 222 225 226 225 226 228 230 232 235 238 243 251 257 264 270 274 281 287 293 297 301 305
249 247 252 257 251 244 243 243 242 243 247 244 239 239 238 237 234 232 233 234 235 235 230 223 219 225 232 248 255 251 248 246 245 245 242 239 238 237 237 237 238 237 236 236 235 233 232 231 230 230 232 232 229 225 223 222 222 223 224 221 219 221 222 221 224 226 223 221 226 230 231 234 237 241 247 254 262 268 274 280 285 290 294 299 302
252 253 251 251 249 243 238 244 247 242 242 242 239 241 242 239 236 235 233 231 233 235 233 227 220 217 216 242 259 261 256 249 247 248 245 241 239 238 238 238 238 238 236 237 237 235 233 232 231 231 233 233 231 228 226 227 227 229 229 224 221 224 226 225 224 224 220 219 225 229 230 231 234 238 244 251 259 266 272 278 284 290 293 297 300
247 251 249 247 246 242 239 249 255 247 243 243 244 246 243 239 238 235 231 226 228 234 237 232 224 214 200 203 188 158 260 246 244 250 249 244 241 240 240 240 240 238 236 237 237 236 235 234 232 233 234 234 232 230 228 229 228 230 231 228 225 227 228 226 227 228 225 225 228 230 230 230 229 231 239 249 258 265 272 277 283 289 294 297 299
249 249 248 249 250 248 246 249 252 247 240 238 246 251 246 243 242 240 237 233 231 233 236 233 228 224 216 201 173 211 243 239 254 259 251 244 243 243 242 241 241 239 238 239 238 238 236 235 234 235 235 234 231 230 229 229 229 230 231 230 230 231 227 225 229 233 232 232 232 230 229 228 227 228 233 245 256 264 271 277 282 288 293 297 299
250 251 250 251 251 250 246 243 243 244 239 237 249 252 243 240 244 243 240 238 235 232 234 234 232 229 226 224 234 243 235 190 205 271 256 246 245 244 243 242 242 241 240 240 239 239 238 236 236 236 236 235 232 230 230 230 229 230 232 231 232 232 229 227 230 232 234 237 238 235 231 224 221 226 230 239 253 261 269 275 281 288 292 297 300
248 250 252 255 255 250 245 244 247 247 242 240 250 252 242 238 242 244 242 238 234 230 233 235 231 231 230 230 235 241 244 231 215 253 280 254 242 242 244 243 241 242 241 241 240 240 239 238 238 238 237 236 234 233 232 232 232 233 234 233 233 233 230 230 231 231 233 236 238 240 237 226 220 226 234 240 248 254 262 273 280 287 292 297 300
249 250 250 252 254 253 249 249 247 243 240 243 249 250 241 235 237 242 244 241 235 232 234 234 230 235 235 232 235 239 243 243 239 245 267 277 255 248 248 246 242 242 242 242 242 242 242 241 240 239 239 237 236 235 235 236 235 235 235 233 234 233 230 230 231 232 232 234 236 238 235 226 224 230 235 238 240 243 255 270 281 287 293 299 300
253 253 252 250 251 253 253 252 250 248 252 256 255 249 239 235 238 240 242 245 240 235 236 236 235 239 238 235 237 239 242 248 250 250 254 260 260 256 253 249 245 245 245 243 244 245 244 243 242 241 241 239 239 238 238 239 238 236 235 234 233 232 231 230 231 232 233 232 233 235 233 226 224 223 220 223 225 232 254 270 280 289 297 300 298
255 254 254 253 251 252 252 253 254 254 255 256 255 249 241 240 242 241 245 247 241 236 237 240 239 240 239 235 234 232 235 244 247 246 246 246 252 260 257 250 249 254 253 248 247 249 247 245 244 243 243 243 242 241 239 239 239 236 234 233 232 232 231 231 232 233 233 232 231 231 232 230 227 217 200 205 217 230 253 272 284 294 301 302 303
256 256 255 255 254 253 251 252 252 251 250 250 251 248 244 243 242 243 246 246 243 241 241 243 242 240 239 236 234 231 229 234 239 239 235 235 245 257 255 254 255 259 261 257 255 255 251 248 247 247 247 246 245 243 241 240 239 237 234 233 232 232 233 234 236 235 232 231 229 227 228 230 226 217 211 210 210 223 252 281 293 301 305 304 306
256 255 254 253 252 251 251 251 251 252 254 255 255 253 251 249 246 246 249 251 252 248 244 243 241 239 239 239 239 239 237 239 243 242 236 235 238 246 252 254 255 257 258 259 258 257 254 254 252 250 250 249 247 245 243 241 240 237 235 234 233 232 234 236 236 235 234 229 226 227 226 225 223 221 220 213 206 214 236 263 279 295 301 300 300
256 256 257 257 255 253 252 252 252 253 254 256 258 259 257 254 254 256 258 260 258 251 247 246 244 242 243 243 242 241 242 244 246 244 241 239 239 246 254 252 253 260 260 256 256 257 256 256 254 251 250 250 249 247 244 242 242 239 235 234 233 232 233 235 231 228 231 228 224 223 216 213 218 216 211 208 213 223 235 253 273 291 297 295 298
263 264 266 265 263 261 259 257 256 255 255 256 257 259 260 260 260 261 259 256 255 254 253 250 247 247 246 244 243 242 244 245 244 243 242 240 237 243 255 256 253 258 261 255 251 249 252 256 255 251 250 251 250 248 245 243 243 241 237 235 234 233 232 233 228 218 219 222 219 215 209 209 211 207 206 212 223 235 249 264 279 291 293 294 301
272 273 273 271 269 268 266 264 262 261 259 258 258 258 259 259 259 261 259 255 253 254 254 251 248 248 246 244 244 244 245 246 245 244 242 240 240 243 248 257 261 257 254 251 246 242 247 255 257 252 250 251 250 248 246 245 244 242 239 235 235 234 231 231 226 211 207 212 212 213 211 208 204 207 216 225 235 248 259 270 281 288 289 295 302
276 276 275 272 271 270 269 268 267 266 264 262 260 257 257 256 257 259 260 260 258 257 255 252 250 250 248 247 247 247 249 249 248 247 245 243 243 243 244 246 254 261 258 250 243 242 247 249 253 254 253 252 252 249 246 245 244 242 239 235 234 232 229 226 220 209 208 211 209 208 205 202 208 217 226 235 245 254 265 274 281 284 287 294 300
279 277 276 274 272 271 270 270 269 268 267 265 262 259 257 256 255 257 258 259 259 259 258 257 257 257 255 253 251 251 252 251 249 248 246 245 244 245 246 244 242 248 265 265 246 233 242 244 247 256 256 251 251 249 245 244 243 241 238 234 231 229 225 220 214 211 213 211 202 199 200 206 215 223 231 240 249 261 274 280 280 281 285 292 297
282 279 277 275 273 272 271 270 269 269 268 266 264 262 260 258 257 257 257 257 257 258 258 259 260 260 257 256 255 256 257 255 254 252 250 250 249 249 249 245 240 239 246 266 259 231 233 242 246 255 257 251 249 246 243 242 241 239 236 231 228 225 220 216 211 208 207 202 197 198 204 211 218 226 234 243 256 271 279 275 271 277 282 289 297
284 282 279 277 275 274 272 271 270 268 266 265 263 262 261 261 261 261 260 258 256 256 256 256 256 256 256 257 258 260 262 263 261 258 254 253 252 251 249 244 240 238 239 250 264 245 236 243 247 251 254 253 249 242 239 239 238 236 233 230 226 221 217 212 207 200 194 194 197 201 206 214 221 229 237 250 265 271 261 247 261 274 278 287 300
289 285 282 280 278 277 275 274 273 270 268 266 264 262 260 260 260 261 262 260 257 257 257 257 257 257 257 259 261 262 264 267 267 264 260 257 255 252 248 244 241 239 238 240 252 259 253 253 253 251 250 249 243 236 234 235 234 232 229 227 222 216 213 208 199 192 191 194 199 202 208 217 224 230 242 257 262 247 225 234 255 262 275 285 289
296 291 287 285 283 281 280 277 275 274 272 269 267 265 262 261 261 261 261 260 258 259 259 259 259 257 257 258 260 261 261 266 267 265 263 261 257 253 249 245 241 239 237 235 242 258 259 256 253 249 246 242 236 232 231 229 227 223 220 220 219 213 207 201 194 192 196 198 200 206 212 219 225 234 248 254 246 228 225 235 240 250 267 272 275
300 294 292 290 287 285 282 280 278 276 274 271 269 266 264 264 264 263 262 260 259 259 258 258 258 257 258 259 261 263 264 267 267 264 263 261 257 253 248 245 241 239 237 235 238 249 256 253 247 243 240 234 229 227 225 223 219 214 210 210 210 207 202 198 193 193 197 199 203 209 214 219 228 240 247 243 232 227 228 220 220 242 253 264 277
307 301 298 295 292 287 284 281 279 277 275 273 270 268 266 266 266 266 265 262 260 260 258 258 259 258 259 261 264 266 266 268 268 265 263 260 257 253 250 246 243 242 240 237 236 241 249 250 241 234 230 224 222 221 219 217 213 208 204 202 201 199 197 196 194 193 194 197 203 209 215 224 235 241 237 228 222 222 218 209 221 238 251 266 282
318 313 307 301 297 292 288 286 284 281 279 277 274 271 269 269 269 268 267 265 263 262 261 261 261 260 260 262 266 267 267 268 269 268 264 260 256 253 251 248 245 244 242 239 236 238 244 246 233 227 224 215 212 214 209 205 204 202 199 196 195 193 190 190 193 193 193 199 206 212 221 230 234 228 219 214 212 210 209 214 222 237 254 269 285
328 323 317 311 304 299 295 292 290 287 285 282 279 277 275 274 272 270 269 267 265 265 264 264 264 263 262 264 267 270 270 269 269 267 265 261 258 254 251 249 247 246 244 240 238 237 239 239 228 218 214 207 204 205 201 195 189 189 191 191 188 186 184 185 190 193 196 201 208 215 223 225 218 210 205 200 199 204 209 213 223 240 257 271 289
337 332 325 319 312 306 303 300 297 294 292 288 284 282 281 278 276 273 271 270 268 267 267 267 267 266 264 265 267 270 270 267 266 267 267 264 260 256 253 252 251 248 245 242 239 236 235 235 226 209 202 200 195 192 195 193 183 174 174 177 180 182 183 183 187 194 199 203 209 215 214 205 198 197 196 190 191 200 205 211 225 241 256 278 303
341 338 332 326 319 312 307 304 302 299 296 293 289 287 284 281 279 276 274 272 270 269 268 268 268 267 266 266 267 269 269 268 268 268 267 265 261 259 256 255 253 249 244 241 237 233 230 228 222 210 201 197 193 187 187 187 182 175 171 168 170 178 184 188 189 191 195 199 203 204 199 192 190 192 190 188 192 197 207 220 229 241 265 299 325
342 339 336 330 325 319 314 309 306 302 298 294 291 289 287 285 282 279 276 275 273 271 270 270 270 269 268 267 267 269 271 270 270 269 267 265 262 259 258 257 253 248 243 239 233 228 225 220 214 206 196 191 189 183 178 177 176 176 177 173 172 177 182 188 191 190 191 192 188 183 183 185 185 183 184 189 198 208 218 223 230 250 287 326 343
340 338 334 331 327 324 321 317 312 307 301 297 295 293 290 288 285 282 279 277 274 273 272 272 272 270 269 268 267 271 275 275 273 271 270 266 262 259 258 257 252 246 241 235 228 222 217 213 207 197 189 185 181 175 174 177 176 174 176 175 172 175 177 178 184 190 190 187 180 173 176 182 179 178 187 192 200 213 217 218 241 276 310 341 329
339 336 332 330 327 324 321 318 314 310 306 304 302 299 295 291 288 284 281 278 275 274 272 272 271 270 269 268 268 273 277 277 275 273 271 268 265 262 260 258 253 246 238 230 225 218 212 209 203 193 188 186 183 178 175 178 177 172 173 172 168 169 169 166 170 182 187 184 176 169 172 181 181 180 191 198 199 204 207 220 268 297 307 307 315
340 336 333 330 328 325 321 317 313 310 308 307 305 301 297 294 289 285 281 278 276 274 272 271 270 269 269 268 269 275 280 278 276 275 273 270 268 265 262 259 255 250 242 231 224 218 212 212 206 196 193 189 184 180 175 173 175 174 175 175 172 167 165 162 160 173 185 185 175 166 167 178 185 185 191 197 195 194 207 243 283 295 292 300 319
341 338 335 332 329 327 323 318 315 313 311 309 307 303 299 295 292 287 282 278 275 273 271 270 269 269 269 268 269 276 281 280 276 275 275 273 271 268 264 260 255 252 248 240 232 224 215 212 206 199 197 188 178 178 176 172 174 177 178 178 174 171 170 168 166 171 181 183 174 165 163 172 184 189 190 189 190 196 226 269 282 277 268 297 318
342 339 337 334 331 329 324 320 317 315 313 313 311 308 304 299 295 290 284 278 275 273 271 270 269 268 268 266 268 276 282 280 275 274 274 274 273 270 265 260 254 251 248 244 240 235 227 218 208 201 197 187 178 180 181 178 177 178 178 176 175 176 174 173 173 170 172 177 174 163 160 174 188 190 188 187 191 212 257 274 261 238 220 272 310
341 339 337 334 332 329 325 322 318 315 315 316 315 312 309 305 300 294 286 281 277 273 271 270 268 268 267 265 267 273 279 277 273 273 274 273 273 270 263 258 252 248 246 241 237 235 231 224 214 207 202 195 189 187 186 185 184 181 178 175 174 174 172 169 168 164 164 172 177 166 159 178 189 188 188 191 200 235 264 252 216 201 210 285 315
338 336 335 333 331 329 327 323 319 316 316 317 317 314 312 309 304 296 289 283 278 275 272 270 269 268 267 266 266 270 274 274 272 272 273 272 269 265 260 254 250 246 244 239 233 229 227 224 219 214 209 204 198 192 189 188 187 185 184 182 176 169 161 154 152 155 159 170 181 178 168 179 186 185 187 197 217 252 256 220 192 194 220 311 328
336 334 333 330 328 327 326 324 319 317 317 318 317 315 312 310 305 298 290 285 280 276 274 272 271 270 268 267 267 269 271 272 273 273 272 269 264 258 254 249 246 243 241 239 234 227 225 223 220 218 214 207 201 196 191 187 186 186 182 174 167 160 149 140 141 151 160 171 184 190 180 174 182 187 190 201 228 253 239 207 192 195 223 323 332
334 333 331 328 326 325 323 322 320 316 317 319 318 314 312 309 305 298 292 286 281 278 276 274 272 271 270 269 268 269 270 271 273 273 269 263 257 251 246 240 237 234 232 231 226 222 223 222 218 216 212 204 199 196 192 188 188 187 175 160 158 157 149 140 140 155 166 177 189 193 183 170 180 191 194 207 236 249 230 207 201 203 227 317 323
330 329 328 326 324 323 321 320 319 315 315 318 318 313 310 307 303 297 292 286 282 279 278 277 276 273 273 273 271 270 270 271 272 271 266 257 249 243 236 229 222 217 214 212 205 204 210 211 207 206 203 199 196 193 192 191 191 190 179 167 164 162 155 149 149 154 167 185 190 187 175 166 178 188 188 203 242 236 211 203 207 214 234 299 310
328 327 326 324 322 321 320 319 317 315 314 316 318 314 310 306 301 296 290 283 279 277 277 277 277 276 274 274 274 271 271 272 271 268 263 252 243 239 231 220 211 206 204 198 191 188 188 188 189 190 189 191 190 185 185 185 184 186 184 176 171 168 163 159 157 155 163 192 193 187 172 165 175 179 176 178 193 200 200 203 209 217 238 280 294